Location: Rometta
(44.2000°N, 10.0500°E)
Time: 22:41:42
(UTC+00:00)

Aureole 3 - Pass Details

Date: 20 January 2021
Orbit: 381 x 1231 km, 82.5° (Epoch: 03 March)

Event Time Altitude Azimuth Distance (km) Brightness Sun altitude
Rises 17:10:49 0° 3° (N) 2,664 6.6 -10.3°
Reaches altitude 10° 17:13:32 10° 20° (NNE) 1,645 5.4 -10.8°
Maximum altitude 17:16:11 20° 70° (ENE) 1,067 4.1 -11.2°
Drops below altitude 10° 17:18:35 10° 121° (ESE) 1,463 5.1 -11.6°
Sets 17:20:49 0° 139° (SE) 2,270 6.2 -12.0°
